Change the Weather History Date:

Friday, June 14, 2013

  Actual Average (KDHN) Record (KDHN)
Temperature  
Mean Temperature 80 °F 80 °F  
Max Temperature 90 °F 90 °F 101 °F (1952)
Min Temperature 71 °F 70 °F 63 °F (1960)
Cooling Degree Days 16 15  
Month to date cooling degree days 193  
Year to date cooling degree days 606  
Since 1 June cooling degree days 193  
Growing Degree Days 30 (Base 50)    
Moisture  
Dew Point 71 °F    
Average Humidity 79    
Maximum Humidity 100    
Minimum Humidity 45    
Precipitation  
Precipitation 0.09 in 0.20 in 1.05 in (1956)
Month to date precipitation 2.64  
Year to date precipitation 25.00  
Sea Level Pressure  
Sea Level Pressure 29.88 in    
Wind  
Wind Speed 4 mph (North)    
Max Wind Speed 9 mph    
Max Gust Speed -    
Visibility 9 miles    
Events Rain , Thunderstorm    
T = Trace of Precipitation, MM = Missing Value Source: NWS Daily Summary

Daily Weather History Graph

Daily Weather History Graph

Search for Another Location

Airport or City:

Trip Planner

Search our weather history database for the weather conditions in past years. The results will help you decide how hot, cold, wet, or windy it might be!

Date:

Astronomy

Jun. 14, 2013 Rise Set
Actual Time 5:38 AM CDT 7:48 PM CDT
Civil Twilight 5:10 AM CDT 8:16 PM CDT
Nautical Twilight 4:36 AM CDT 8:50 PM CDT
Astronomical Twilight 3:59 AM CDT 9:27 PM CDT
Moon 10:54 AM CDT (6/14) 11:44 PM CDT (6/14)
Length of Visible Light 15h 06m
Length of Day
14h 10m
Waxing Crescent, 30% of the Moon is Illuminated
Jun 14
Waxing Crescent
Jun 16
First Quarter
Jun 23
Full
Jun 29
Last Quarter
Jul 8
New

Hourly Weather History & Observations

Time (CDT) Temp. Heat Index Dew Point Humidity Pressure Visibility Wind Dir Wind Speed Gust Speed Precip Events Conditions
12:23 AM 80.6 °F 85.4 °F 73.4 °F 79% 29.87 in 10.0 mi SW 4.6 mph - N/A Thunderstorm Thunderstorm
12:39 AM 80.6 °F 85.4 °F 73.4 °F 79% 29.87 in 10.0 mi West 5.8 mph - N/A Thunderstorm Thunderstorm
12:53 AM 81.0 °F 86.2 °F 73.9 °F 79% 29.86 in 10.0 mi West 4.6 mph - N/A Thunderstorm Thunderstorm
1:53 AM 75.0 °F - 73.0 °F 94% 29.87 in 9.0 mi North 5.8 mph - 0.08 in Rain , Thunderstorm Light Thunderstorms and Rain
2:53 AM 75.0 °F - 73.0 °F 94% 29.84 in 8.0 mi SSW 5.8 mph - 0.01 in   Partly Cloudy
3:00 AM 75.2 °F - 73.4 °F 94% 29.86 in 7.0 mi South 3.5 mph - N/A Thunderstorm Thunderstorm
3:09 AM 75.2 °F - 73.4 °F 94% 29.85 in 6.0 mi Calm Calm - N/A   Mostly Cloudy
3:20 AM 73.4 °F - 73.4 °F 100% 29.85 in 5.0 mi Calm Calm - N/A Thunderstorm Mostly Cloudy
3:27 AM 75.2 °F - 73.4 °F 94% 29.85 in 6.0 mi Calm Calm - N/A Thunderstorm Overcast
3:38 AM 75.2 °F - 73.4 °F 94% 29.85 in 7.0 mi SW 3.5 mph - N/A   Mostly Cloudy
3:53 AM 75.0 °F - 73.0 °F 94% 29.84 in 10.0 mi SW 3.5 mph - N/A   Partly Cloudy
4:53 AM 72.0 °F - 69.1 °F 91% 29.82 in 10.0 mi Calm Calm - N/A   Clear
5:53 AM 71.1 °F - 69.1 °F 93% 29.83 in 7.0 mi Calm Calm - N/A   Clear
6:53 AM 73.0 °F - 70.0 °F 90% 29.85 in 10.0 mi Calm Calm - N/A   Clear
7:18 AM 73.4 °F - 71.6 °F 94% 29.87 in 10.0 mi Calm Calm - N/A   Partly Cloudy
7:41 AM 75.2 °F - 71.6 °F 89% 29.88 in 10.0 mi NW 3.5 mph - N/A   Mostly Cloudy
7:53 AM 75.0 °F - 72.0 °F 90% 29.88 in 10.0 mi NW 5.8 mph - N/A   Overcast
8:25 AM 77.0 °F - 73.4 °F 89% 29.90 in 10.0 mi NNW 4.6 mph - N/A   Mostly Cloudy
8:49 AM 78.8 °F - 73.4 °F 83% 29.90 in 9.0 mi Variable 3.5 mph - N/A   Overcast
8:53 AM 78.1 °F - 73.0 °F 84% 29.89 in 9.0 mi Variable 3.5 mph - N/A   Overcast
9:17 AM 78.8 °F - 73.4 °F 83% 29.90 in 9.0 mi NNE 5.8 mph - N/A   Overcast
9:53 AM 79.0 °F - 73.0 °F 82% 29.90 in 10.0 mi North 4.6 mph - N/A   Overcast
10:36 AM 80.6 °F 85.4 °F 73.4 °F 79% 29.91 in 10.0 mi NE 5.8 mph - N/A   Overcast
10:53 AM 82.0 °F 87.4 °F 73.0 °F 74% 29.90 in 10.0 mi ENE 5.8 mph - N/A   Mostly Cloudy
11:53 AM 84.9 °F 90.1 °F 71.1 °F 63% 29.88 in 10.0 mi Variable 6.9 mph - N/A   Partly Cloudy
12:53 PM 86.0 °F 91.5 °F 71.1 °F 61% 29.88 in 10.0 mi Variable 3.5 mph - N/A   Mostly Cloudy
1:53 PM 87.1 °F 92.8 °F 71.1 °F 59% 29.86 in 10.0 mi NE 3.5 mph - N/A   Mostly Cloudy
2:53 PM 90.0 °F 94.5 °F 69.1 °F 50% 29.86 in 10.0 mi NE 3.5 mph - N/A   Scattered Clouds
3:53 PM 90.0 °F 94.5 °F 69.1 °F 50% 29.86 in 10.0 mi North 9.2 mph - N/A   Scattered Clouds
4:53 PM 90.0 °F 92.8 °F 66.9 °F 46% 29.86 in 10.0 mi NNE 6.9 mph - N/A   Clear
5:53 PM 89.1 °F 91.0 °F 64.9 °F 45% 29.86 in 10.0 mi NNE 6.9 mph - N/A   Clear
6:53 PM 86.0 °F 88.2 °F 66.0 °F 51% 29.87 in 10.0 mi North 4.6 mph - N/A   Clear
7:53 PM 79.0 °F - 69.1 °F 72% 29.89 in 10.0 mi Calm Calm - N/A   Clear
8:53 PM 78.1 °F - 66.9 °F 68% 29.90 in 10.0 mi NNE 3.5 mph - N/A   Clear
9:53 PM 75.0 °F - 66.9 °F 76% 29.92 in 10.0 mi NNE 3.5 mph - N/A   Clear
10:53 PM 75.0 °F - 66.9 °F 76% 29.95 in 10.0 mi Calm Calm - N/A   Clear
11:53 PM 71.1 °F - 66.9 °F 87% 29.95 in 10.0 mi Calm Calm - N/A   Clear